Location: ?????
(32.7281°N, 34.9563°E)
Time: 02:05:27
(UTC+00:00)

Cosmos 1346 Rocket - Pass Details

Date: 29 October 2020
Orbit: 535 x 543 km, 81.2° (Epoch: 25 November)

Event Time Altitude Azimuth Distance (km) Brightness Sun altitude
Rises 15:57:07 0° 359° (N) 2,707 6.3 -14.3°
Reaches altitude 10° 15:59:21 10° 5° (N) 1,812 5.3 -14.7°
Maximum altitude 16:03:12 47° 80° (E) 725 3.0 -15.6°
Drops below altitude 10° 16:07:02 10° 155° (SSE) 1,800 5.2 -16.4°
Sets 16:09:15 0° 161° (SSE) 2,687 6.2 -16.8°
